Miscellaneous Local Product
Issued by NWS Hastings, NE

Home | Current Version | Previous Version | Graphics & Text | Print | Product List | Glossary On
Versions: 1 2 3 4 5 6 7 8 9 10 11 12 13 14 15 16 17 18 19 20 21 22 23 24 25 26 27 28 29 30 31 32 33 34 35 36 37 38 39 40 41 42 43 44 45 46 47 48 49 50
000
AXUS43 KGID 301302
MISGRI

GID CWA HOURLY WEATHER ROUNDUP
NATIONAL WEATHER SERVICE HASTINGS NE
800 AM CDT SAT APR 30 2016

NOTE: "FAIR" INDICATES FEW OR NO CLOUDS BELOW 12,000 FEET WITH NO
SIGNIFICANT WEATHER AND/OR OBSTRUCTIONS TO VISIBILITY.

...SOUTH CENTRAL NEBRASKA...

CITY           SKY/WX    TMP DP  RH WIND       PRES   REMARKS
GRAND ISLAND   LGT RAIN  42  40  92 NE12      29.74R FOG
HASTINGS       LGT RAIN  42  41  96 N13       29.71S FOG
KEARNEY        CLOUDY    41  39  93 N13       29.74S
ORD            LGT RAIN  40  38  93 NE17      29.76F WCI  31
YORK           CLOUDY    43  41  93 NE13      29.71F
AURORA         CLOUDY    43  42  99 NE13      29.72R
LEXINGTON      LGT RAIN  37  35  93 N10       29.76F WCI  30
HOLDREGE       CLOUDY    40  39  96 N12       29.73F FOG     WCI  33
HEBRON         CLOUDY    45  44  97 N6        29.68S FOG

...NEBRASKA PANHANDLE...

CITY           SKY/WX    TMP DP  RH WIND       PRES   REMARKS
CHADRON        LGT RAIN  37  35  92 N17G25    29.98R FOG     WCI  27
ALLIANCE       SNOW      32  32 100 N18       29.90R VSB 1/2 WCI  20
SCOTTSBLUFF    LGT SNOW  34  31  88 N17       29.93R FOG     WCI  23
SIDNEY         LGT SNOW  32  31  96 N20       29.86S VSB 3/4 WCI  20

...WESTERN AND NORTH CENTRAL NEBRASKA...

CITY           SKY/WX    TMP DP  RH WIND       PRES   REMARKS
VALENTINE      LGT RAIN  39  36  89 NE20G28   29.92S WCI  29
AINSWORTH      LGT SNOW  35  34  97 NE17      29.90S WCI  25
ONEILL         RAIN      40  38  93 NE16      29.87S WCI  32
BROKEN BOW     LGT RAIN  38  36  92 N15       29.78R FOG     WCI  29
IMPERIAL       CLOUDY    33  32  96 N13       29.82R WCI  24
NORTH PLATTE   LGT SNOW  33  32  96 NW7       29.81S FOG     WCI  27
MCCOOK         CLOUDY    36  34  92 N13       29.78S WCI  27

...EASTERN NEBRASKA...

CITY           SKY/WX    TMP DP  RH WIND       PRES   REMARKS
NORFOLK        RAIN      42  39  89 NE12      29.79R FOG
SO SIOUX CITY  HVY RAIN  45  41  86 E15G23    29.81S FOG
TEKAMAH        RAIN      44  42  93 NE15      29.76S FOG
COLUMBUS       CLOUDY    43  36  75 NE15      29.77R
ALBION         RAIN      41  40  94 NE10      29.77F
OMAHA EPPLEY   LGT RAIN  46  43  89 E7        29.73S
OFFUTT AFB     RAIN      46  45  93 E13       29.70R FOG
MILLARD        LGT RAIN  46  44  93 E7        29.71S
LINCOLN        CLOUDY    46  44  93 NE9       29.72S
NEBRASKA CITY  RAIN      47  47 100 E13       29.69R
BEATRICE       CLOUDY    46  46  97 NE7       29.66F
FALLS CITY     LGT RAIN  51  50  96 E8        29.66R FOG

...NORTHERN KANSAS...

CITY           SKY/WX    TMP DP  RH WIND       PRES   REMARKS
GOODLAND       FOG       32  32 100 N14       29.79R VSB 1   WCI  22
HILL CITY      CLOUDY    41  40  96 N15       29.75S FOG
NORTON         CLOUDY    37  36  93 NW15G22   29.74  FOG     WCI  28
PHILLIPSBURG   CLOUDY    43  43 100 CALM      29.74R FOG
SMITH CENTER   CLOUDY    43  43 100 N7        29.72R FOG
BELOIT         CLOUDY    45  43  93 CALM      29.68S
HAYS           CLOUDY    43  36  75 NW12      29.73R
RUSSELL        CLOUDY    45  45 100 NW7       29.70R FOG
CONCORDIA      FOG       46  45  96 N6        29.68R VSB 1
SALINA         CLOUDY    51  49  92 W9        29.69R
TOPEKA         CLOUDY    57  56  96 CALM      29.64R



USA.gov is the U.S. government's official web portal to all federal, state and local government web resources and services.